Group: KLIN

Releases: 56.873 · Total size: 1,02 TB

First: 2012-03-25 · Last: 2023-08-20

By section: MP3/FLAC 56.873 (1,02 TB)

Release Section Group Size Files Date ↓
Azkhaban-Bring_Me_To_Listen_Another_Side-(DNC537)-SINGLE-WEB-2020-KLIN MP3/FLAC KLIN 6,35 MB 5 2020-05-29
Easy_Blended-Airport-(10172957)-SINGLE-WEB-2020-KLIN MP3/FLAC KLIN 7,95 MB 5 2020-05-29
Fondz-Undercover-(FR052)-SINGLE-WEB-2020-KLIN MP3/FLAC KLIN 11,48 MB 5 2020-05-29
Mirco_Caruso-Musica-(2DROP047)-SINGLE-WEB-2020-KLIN MP3/FLAC KLIN 14,80 MB 5 2020-05-29
Baile-Memory_Pattern-(TNH048E)-WEB-2020-KLIN MP3/FLAC KLIN 29,87 MB 7 2020-05-29
Roman_Lars-Sun_Express-(430915)-SINGLE-WEB-2020-KLIN MP3/FLAC KLIN 10,19 MB 5 2020-05-29
M_I_T_Y_A-Moving_Up-(GMR691)-SINGLE-WEB-2020-KLIN MP3/FLAC KLIN 8,02 MB 5 2020-05-29
Gurmoh-Theke-(637249851952779117)-SINGLE-WEB-2020-KLIN MP3/FLAC KLIN 6,57 MB 4 2020-05-29
Hubert_Daviz-Midnight_City_Breeze-(195081617015)-SINGLE-WEB-2020-KLIN MP3/FLAC KLIN 7,06 MB 4 2020-05-29
Djapatox-Human_Extinction-(URDR127)-SINGLE-WEB-2020-KLIN MP3/FLAC KLIN 14,27 MB 4 2020-05-29
Laudable-Sprinkle-(430886)-SINGLE-WEB-2020-KLIN MP3/FLAC KLIN 11,62 MB 4 2020-05-29
Maren-Deep_Light-(CLR020)-WEB-2020-KLIN MP3/FLAC KLIN 22,42 MB 6 2020-05-29
Beatmool-Third_Moon-(447142)-WEB-2020-KLIN MP3/FLAC KLIN 24,48 MB 6 2020-05-29
Das_Kapital-Meditate-(195081387239)-SINGLE-WEB-2020-KLIN MP3/FLAC KLIN 8,61 MB 5 2020-05-29
Joel_Fletcher-Vibe-(195081502656)-SINGLE-WEB-2020-KLIN MP3/FLAC KLIN 6,78 MB 5 2020-05-29
Dj_Musgenix-Success-(637250266773921584)-SINGLE-WEB-2020-KLIN MP3/FLAC KLIN 7,78 MB 5 2020-05-29
Threefiftyseven-Pot_Black-(637250636396358822)-SINGLE-WEB-2020-KLIN MP3/FLAC KLIN 9,50 MB 5 2020-05-29
Alexi_Action-Synthwave_80S-(637250942469329934)-SINGLE-WEB-2020-KLIN MP3/FLAC KLIN 5,44 MB 5 2020-05-29
T3Jas-Pandara-(637250510821352010)-SINGLE-WEB-2020-KLIN MP3/FLAC KLIN 7,52 MB 5 2020-05-29
Alexi_Action-The_Silk_Road-(637250965712460090)-SINGLE-WEB-2020-KLIN MP3/FLAC KLIN 5,78 MB 5 2020-05-29
Caztilla-Smash_U-(10173534)-WEB-2020-KLIN MP3/FLAC KLIN 30,32 MB 6 2020-05-29
Brian_Boncher-Gimmie_Some-(BTHAT06)-SINGLE-WEB-2020-KLIN MP3/FLAC KLIN 11,59 MB 4 2020-05-29
Baustek-No_Heartbeat-(NHB2020)-SINGLE-WEB-2020-KLIN MP3/FLAC KLIN 16,77 MB 5 2020-05-29
Leonardo_Pancaldi-After_Virus-(4061798607969)-WEB-2020-KLIN MP3/FLAC KLIN 227,16 MB 24 2020-05-29
Division_4-Partition-(195081462370)-WEB-2020-KLIN MP3/FLAC KLIN 17,15 MB 6 2020-05-29
Dimitri_T_Jay-A_Better_World-(DTJ2003)-SINGLE-WEB-2020-KLIN MP3/FLAC KLIN 12,08 MB 5 2020-05-29
Lj_Mase-Out_Of_Love-(SPT091)-WEB-2020-KLIN MP3/FLAC KLIN 21,75 MB 6 2020-05-29
Jaydee-Who_Is-(FF007)-SINGLE-WEB-2020-KLIN MP3/FLAC KLIN 16,77 MB 5 2020-05-29
11Moi11-Waste_No_Time-(445882)-SINGLE-WEB-2020-KLIN MP3/FLAC KLIN 9,16 MB 5 2020-05-29
Plume-Lose_My_Mind-(4061798598168)-SINGLE-WEB-2020-KLIN MP3/FLAC KLIN 7,94 MB 4 2020-05-29
Bloque_M-Deep_Bounce-(32)-SINGLE-WEB-2020-KLIN MP3/FLAC KLIN 18,09 MB 5 2020-05-29
Michel_Senar-Boogie_Boogie-(MED58)-SINGLE-WEB-2020-KLIN MP3/FLAC KLIN 13,40 MB 5 2020-05-29
Off_The_Moon-Kryptonite-(ARKHAM011)-SINGLE-WEB-2020-KLIN MP3/FLAC KLIN 11,09 MB 5 2020-05-29
Rebass-Dance-(DPB721)-SINGLE-WEB-2020-KLIN MP3/FLAC KLIN 8,38 MB 5 2020-05-29
Bleu_Lezard-Eighty-(4061798611058)-SINGLE-WEB-2020-KLIN MP3/FLAC KLIN 9,86 MB 5 2020-05-29
Steve_Otto-Angels_Calling-(OTREC0040)-SINGLE-WEB-2020-KLIN MP3/FLAC KLIN 16,63 MB 5 2020-05-29
Steve_Darko-Shake_That-(BOC091DJ)-WEB-2020-KLIN MP3/FLAC KLIN 27,94 MB 7 2020-05-29
Rivera_Rivera-Sundrive_Avenue-(8719729834187)-SINGLE-WEB-2020-KLIN MP3/FLAC KLIN 14,42 MB 5 2020-05-29
Pasgo-Thinking_Of_U-(8719729883796)-SINGLE-WEB-2020-KLIN MP3/FLAC KLIN 10,00 MB 5 2020-05-29
Kinetic-Believe-(8719729881150)-WEB-2020-KLIN MP3/FLAC KLIN 32,71 MB 6 2020-05-29
Hocco-Ramage-(8719729882676)-SINGLE-WEB-2020-KLIN MP3/FLAC KLIN 7,89 MB 5 2020-05-29
Anira-Like-(195081640273)-SINGLE-WEB-2020-KLIN MP3/FLAC KLIN 7,62 MB 5 2020-05-29
Dclerk-Breath-(OCM053)-SINGLE-WEB-2020-KLIN MP3/FLAC KLIN 14,36 MB 5 2020-05-29
Dtrdjjoxe-Sanitary_Solidarity-(AM5850)-WEB-2020-KLIN MP3/FLAC KLIN 36,12 MB 6 2020-05-29
Sergio_Helou-Funky_Deep-(MMD061)-WEB-2020-KLIN MP3/FLAC KLIN 19,75 MB 6 2020-05-29
11-Etoile-(CAT389469)-SINGLE-WEB-2020-KLIN MP3/FLAC KLIN 9,83 MB 5 2020-05-29
Hazzaro-Escape-(AZZT035)-SINGLE-WEB-2020-KLIN MP3/FLAC KLIN 13,17 MB 5 2020-05-29
Kazbo-Digital_Pursuit-(194997830662)-SINGLE-WEB-2020-KLIN MP3/FLAC KLIN 13,12 MB 5 2020-05-29
Earthen-Reality-(053000999317)-SINGLE-WEB-2020-KLIN MP3/FLAC KLIN 6,81 MB 5 2020-05-29
Kosmicway-Cosmic_Greyhound-(DMR016)-WEB-2020-KLIN MP3/FLAC KLIN 28,61 MB 5 2020-05-29